Year,Month,Day,Hour,Minute,Value (Times are PST for temperature in C)
2008,06,26,00,00,13.40
2008,06,26,00,01,13.40
2008,06,26,00,02,13.30
2008,06,26,00,03,13.20
2008,06,26,00,04,13.10
2008,06,26,00,05,13.00
2008,06,26,00,06,12.90
2008,06,26,00,07,12.80
2008,06,26,00,08,12.80
2008,06,26,00,09,12.70
2008,06,26,00,10,12.70
2008,06,26,00,11,12.60
2008,06,26,00,12,12.60
2008,06,26,00,13,12.50
2008,06,26,00,14,12.40
2008,06,26,00,15,12.30
2008,06,26,00,16,12.30
2008,06,26,00,17,12.30
2008,06,26,00,18,12.20
2008,06,26,00,19,12.20
2008,06,26,00,20,12.20
2008,06,26,00,21,12.10
2008,06,26,00,22,12.10
2008,06,26,00,23,12.10
2008,06,26,00,24,12.10
2008,06,26,00,25,12.10
2008,06,26,00,26,12.10
2008,06,26,00,27,12.10
2008,06,26,00,28,12.10
2008,06,26,00,29,12.00
2008,06,26,00,30,12.00
2008,06,26,00,31,12.00
2008,06,26,00,32,12.10
2008,06,26,00,33,12.10
2008,06,26,00,34,12.10
2008,06,26,00,35,12.20
2008,06,26,00,36,12.20
2008,06,26,00,37,12.30
2008,06,26,00,38,12.30
2008,06,26,00,39,12.40
2008,06,26,00,40,12.50
2008,06,26,00,41,12.50
2008,06,26,00,42,12.60
2008,06,26,00,43,12.60
2008,06,26,00,44,12.60
2008,06,26,00,45,12.70
2008,06,26,00,46,12.80
2008,06,26,00,47,12.80
2008,06,26,00,48,12.80
2008,06,26,00,49,12.80
2008,06,26,00,50,12.80
2008,06,26,00,51,12.80
2008,06,26,00,52,12.80
2008,06,26,00,53,12.80
2008,06,26,00,54,12.80
2008,06,26,00,55,12.80
2008,06,26,00,56,12.70
2008,06,26,00,57,12.70
2008,06,26,00,58,12.70
2008,06,26,00,59,12.70
2008,06,26,01,00,12.70
2008,06,26,01,01,12.60
2008,06,26,01,02,12.60
2008,06,26,01,03,12.60
2008,06,26,01,04,12.50
2008,06,26,01,05,12.50
2008,06,26,01,06,12.40
2008,06,26,01,07,12.40
2008,06,26,01,08,12.40
2008,06,26,01,09,12.30
2008,06,26,01,10,12.30
2008,06,26,01,11,12.30
2008,06,26,01,12,12.30
2008,06,26,01,13,12.30
2008,06,26,01,14,12.20
2008,06,26,01,15,12.20
2008,06,26,01,16,12.20
2008,06,26,01,17,12.20
2008,06,26,01,18,12.10
2008,06,26,01,19,12.10
2008,06,26,01,20,12.10
2008,06,26,01,21,12.10
2008,06,26,01,22,12.00
2008,06,26,01,23,12.00
2008,06,26,01,24,12.00
2008,06,26,01,25,11.90
2008,06,26,01,26,11.90
2008,06,26,01,27,11.90
2008,06,26,01,28,11.90
2008,06,26,01,29,11.90
2008,06,26,01,30,11.90
2008,06,26,01,31,11.80
2008,06,26,01,32,11.80
2008,06,26,01,33,11.80
2008,06,26,01,34,11.80
2008,06,26,01,35,11.80
2008,06,26,01,36,11.80
2008,06,26,01,37,11.80
2008,06,26,01,38,11.80
2008,06,26,01,39,11.80
2008,06,26,01,40,11.80
2008,06,26,01,41,11.80
2008,06,26,01,42,11.80
2008,06,26,01,43,11.70
2008,06,26,01,44,11.70
2008,06,26,01,45,11.70
2008,06,26,01,46,11.80
2008,06,26,01,47,11.80
2008,06,26,01,48,11.90
2008,06,26,01,49,11.90
2008,06,26,01,50,11.90
2008,06,26,01,51,11.90
2008,06,26,01,52,11.90
2008,06,26,01,53,11.80
2008,06,26,01,54,11.80
2008,06,26,01,55,11.80
2008,06,26,01,56,11.70
2008,06,26,01,57,11.70
2008,06,26,01,58,11.70
2008,06,26,01,59,11.70
2008,06,26,02,00,11.70
2008,06,26,02,01,11.70
2008,06,26,02,02,11.60
2008,06,26,02,03,11.60
2008,06,26,02,04,11.60
2008,06,26,02,05,11.60
2008,06,26,02,06,11.60
2008,06,26,02,07,11.50
2008,06,26,02,08,11.50
2008,06,26,02,09,11.40
2008,06,26,02,10,11.40
2008,06,26,02,11,11.30
2008,06,26,02,12,11.30
2008,06,26,02,13,11.30
2008,06,26,02,14,11.30
2008,06,26,02,15,11.20
2008,06,26,02,16,11.30
2008,06,26,02,17,11.20
2008,06,26,02,18,11.30
2008,06,26,02,19,11.30
2008,06,26,02,20,11.30
2008,06,26,02,21,11.30
2008,06,26,02,22,11.30
2008,06,26,02,23,11.40
2008,06,26,02,24,11.40
2008,06,26,02,25,11.40
2008,06,26,02,26,11.50
2008,06,26,02,27,11.50
2008,06,26,02,28,11.50
2008,06,26,02,29,11.50
2008,06,26,02,30,11.40
2008,06,26,02,31,11.40
2008,06,26,02,32,11.40
2008,06,26,02,33,11.40
2008,06,26,02,34,11.40
2008,06,26,02,35,11.30
2008,06,26,02,36,11.30
2008,06,26,02,37,11.30
2008,06,26,02,38,11.30
2008,06,26,02,39,11.30
2008,06,26,02,40,11.30
2008,06,26,02,41,11.30
2008,06,26,02,42,11.30
2008,06,26,02,43,11.30
2008,06,26,02,44,11.30
2008,06,26,02,45,11.40
2008,06,26,02,46,11.40
2008,06,26,02,47,11.40
2008,06,26,02,48,11.30
2008,06,26,02,49,11.40
2008,06,26,02,50,11.40
2008,06,26,02,51,11.40
2008,06,26,02,52,11.30
2008,06,26,02,53,11.30
2008,06,26,02,54,11.30
2008,06,26,02,55,11.30
2008,06,26,02,56,11.30
2008,06,26,02,57,11.30
2008,06,26,02,58,11.20
2008,06,26,02,59,11.20
2008,06,26,03,00,11.20
2008,06,26,03,01,11.20
2008,06,26,03,02,11.20
2008,06,26,03,03,11.20
2008,06,26,03,04,11.20
2008,06,26,03,05,11.20
2008,06,26,03,06,11.20
2008,06,26,03,07,11.20
2008,06,26,03,08,11.10
2008,06,26,03,09,11.10
2008,06,26,03,10,11.10
2008,06,26,03,11,11.10
2008,06,26,03,12,11.10
2008,06,26,03,13,11.00
2008,06,26,03,14,11.00
2008,06,26,03,15,10.90
2008,06,26,03,16,10.90
2008,06,26,03,17,10.90
2008,06,26,03,18,10.90
2008,06,26,03,19,10.90
2008,06,26,03,20,10.90
2008,06,26,03,21,10.90
2008,06,26,03,22,10.80
2008,06,26,03,23,10.80
2008,06,26,03,24,10.80
2008,06,26,03,25,10.80
2008,06,26,03,26,10.80
2008,06,26,03,27,10.70
2008,06,26,03,28,10.70
2008,06,26,03,29,10.60
2008,06,26,03,30,10.60
2008,06,26,03,31,10.60
2008,06,26,03,32,10.60
2008,06,26,03,33,10.60
2008,06,26,03,34,10.60
2008,06,26,03,35,10.60
2008,06,26,03,36,10.50
2008,06,26,03,37,10.50
2008,06,26,03,38,10.50
2008,06,26,03,39,10.50
2008,06,26,03,40,10.60
2008,06,26,03,41,10.60
2008,06,26,03,42,10.60
2008,06,26,03,43,10.60
2008,06,26,03,44,10.60
2008,06,26,03,45,10.60
2008,06,26,03,46,10.60
2008,06,26,03,47,10.60
2008,06,26,03,48,10.60
2008,06,26,03,49,10.60
2008,06,26,03,50,10.60
2008,06,26,03,51,10.60
2008,06,26,03,52,10.70
2008,06,26,03,53,10.70
2008,06,26,03,54,10.70
2008,06,26,03,55,10.70
2008,06,26,03,56,10.60
2008,06,26,03,57,10.60
2008,06,26,03,58,10.60
2008,06,26,03,59,10.50
2008,06,26,04,00,10.50
2008,06,26,04,01,10.50
2008,06,26,04,02,10.40
2008,06,26,04,03,10.40
2008,06,26,04,04,10.30
2008,06,26,04,05,10.30
2008,06,26,04,06,10.30
2008,06,26,04,07,10.20
2008,06,26,04,08,10.20
2008,06,26,04,09,10.20
2008,06,26,04,10,10.20
2008,06,26,04,11,10.10
2008,06,26,04,12,10.10
2008,06,26,04,13,10.10
2008,06,26,04,14,10.10
2008,06,26,04,15,10.10
2008,06,26,04,16,10.00
2008,06,26,04,17,10.10
2008,06,26,04,18,10.00
2008,06,26,04,19,10.00
2008,06,26,04,20,10.00
2008,06,26,04,21,10.00
2008,06,26,04,22,10.00
2008,06,26,04,23,9.90
2008,06,26,04,24,10.00
2008,06,26,04,25,10.00
2008,06,26,04,26,10.00
2008,06,26,04,27,10.00
2008,06,26,04,28,10.00
2008,06,26,04,29,10.00
2008,06,26,04,30,10.10
2008,06,26,04,31,10.10
2008,06,26,04,32,10.10
2008,06,26,04,33,10.10
2008,06,26,04,34,10.10
2008,06,26,04,35,10.10
2008,06,26,04,36,10.10
2008,06,26,04,37,10.10
2008,06,26,04,38,10.10
2008,06,26,04,39,10.10
2008,06,26,04,40,10.10
2008,06,26,04,41,10.10
2008,06,26,04,42,10.10
2008,06,26,04,43,10.10
2008,06,26,04,44,10.20
2008,06,26,04,45,10.20
2008,06,26,04,46,10.20
2008,06,26,04,47,10.20
2008,06,26,04,48,10.20
2008,06,26,04,49,10.20
2008,06,26,04,50,10.20
2008,06,26,04,51,10.20
2008,06,26,04,52,10.20
2008,06,26,04,53,10.20
2008,06,26,04,54,10.20
2008,06,26,04,55,10.20
2008,06,26,04,56,10.20
2008,06,26,04,57,10.20
2008,06,26,04,58,10.20
2008,06,26,04,59,10.20
2008,06,26,05,00,10.30
2008,06,26,05,01,10.30
2008,06,26,05,02,10.30
2008,06,26,05,03,10.30
2008,06,26,05,04,10.30
2008,06,26,05,05,10.30
2008,06,26,05,06,10.30
2008,06,26,05,07,10.30
2008,06,26,05,08,10.30
2008,06,26,05,09,10.40
2008,06,26,05,10,10.40
2008,06,26,05,11,10.40
2008,06,26,05,12,10.50
2008,06,26,05,13,10.50
2008,06,26,05,14,10.50
2008,06,26,05,15,10.50
2008,06,26,05,16,10.60
2008,06,26,05,17,10.60
2008,06,26,05,18,10.60
2008,06,26,05,19,10.60
2008,06,26,05,20,10.60
2008,06,26,05,21,10.60
2008,06,26,05,22,10.60
2008,06,26,05,23,10.60
2008,06,26,05,24,10.50
2008,06,26,05,25,10.50
2008,06,26,05,26,10.50
2008,06,26,05,27,10.40
2008,06,26,05,28,10.40
2008,06,26,05,29,10.40
2008,06,26,05,30,10.40
2008,06,26,05,31,10.40
2008,06,26,05,32,10.40
2008,06,26,05,33,10.40
2008,06,26,05,34,10.40
2008,06,26,05,35,10.40
2008,06,26,05,36,10.40
2008,06,26,05,37,10.40
2008,06,26,05,38,10.40
2008,06,26,05,39,10.40
2008,06,26,05,40,10.40
2008,06,26,05,41,10.40
2008,06,26,05,42,10.40
2008,06,26,05,43,10.40
2008,06,26,05,44,10.40
2008,06,26,05,45,10.40
2008,06,26,05,46,10.40
2008,06,26,05,47,10.40
2008,06,26,05,48,10.50
2008,06,26,05,49,10.50
2008,06,26,05,50,10.50
2008,06,26,05,51,10.50
2008,06,26,05,52,10.50
2008,06,26,05,53,10.50
2008,06,26,05,54,10.50
2008,06,26,05,55,10.50
2008,06,26,05,56,10.50
2008,06,26,05,57,10.50
2008,06,26,05,58,10.50
2008,06,26,05,59,10.50
2008,06,26,06,00,10.50
2008,06,26,06,01,10.50
2008,06,26,06,02,10.50
2008,06,26,06,03,10.50
2008,06,26,06,04,10.50
2008,06,26,06,05,10.50
2008,06,26,06,06,10.50
2008,06,26,06,07,10.60
2008,06,26,06,08,10.60
2008,06,26,06,09,10.60
2008,06,26,06,10,10.60
2008,06,26,06,11,10.60
2008,06,26,06,12,10.60
2008,06,26,06,13,10.60
2008,06,26,06,14,10.60
2008,06,26,06,15,10.60
2008,06,26,06,16,10.70
2008,06,26,06,17,10.70
2008,06,26,06,18,10.70
2008,06,26,06,19,10.70
2008,06,26,06,20,10.70
2008,06,26,06,21,10.70
2008,06,26,06,22,10.70
2008,06,26,06,23,10.80
2008,06,26,06,24,10.80
2008,06,26,06,25,10.80
2008,06,26,06,26,10.80
2008,06,26,06,27,10.80
2008,06,26,06,28,10.80
2008,06,26,06,29,10.90
2008,06,26,06,30,10.90
2008,06,26,06,31,10.90
2008,06,26,06,32,10.90
2008,06,26,06,33,10.90
2008,06,26,06,34,11.00
2008,06,26,06,35,11.00
2008,06,26,06,36,11.00
2008,06,26,06,37,11.10
2008,06,26,06,38,11.10
2008,06,26,06,39,11.10
2008,06,26,06,40,11.10
2008,06,26,06,41,11.20
2008,06,26,06,42,11.20
2008,06,26,06,43,11.20
2008,06,26,06,44,11.20
2008,06,26,06,45,11.30
2008,06,26,06,46,11.30
2008,06,26,06,47,11.30
2008,06,26,06,48,11.30
2008,06,26,06,49,11.30
2008,06,26,06,50,11.30
2008,06,26,06,51,11.30
2008,06,26,06,52,11.40
2008,06,26,06,53,11.40
2008,06,26,06,54,11.40
2008,06,26,06,55,11.40
2008,06,26,06,56,11.40
2008,06,26,06,57,11.50
2008,06,26,06,58,11.50
2008,06,26,06,59,11.60
2008,06,26,07,00,11.60
2008,06,26,07,01,11.70
2008,06,26,07,02,11.70
2008,06,26,07,03,11.80
2008,06,26,07,04,11.80
2008,06,26,07,05,11.80
2008,06,26,07,06,11.90
2008,06,26,07,07,11.90
2008,06,26,07,08,12.00
2008,06,26,07,09,12.00
2008,06,26,07,10,12.10
2008,06,26,07,11,12.10
2008,06,26,07,12,12.10
2008,06,26,07,13,12.10
2008,06,26,07,14,12.10
2008,06,26,07,15,12.20
2008,06,26,07,16,12.20
2008,06,26,07,17,12.20
2008,06,26,07,18,12.20
2008,06,26,07,19,12.20
2008,06,26,07,20,12.30
2008,06,26,07,21,12.30
2008,06,26,07,22,12.30
2008,06,26,07,23,12.30
2008,06,26,07,24,12.30
2008,06,26,07,25,12.30
2008,06,26,07,26,12.40
2008,06,26,07,27,12.40
2008,06,26,07,28,12.40
2008,06,26,07,29,12.40
2008,06,26,07,30,12.30
2008,06,26,07,31,12.30
2008,06,26,07,32,12.30
2008,06,26,07,33,12.40
2008,06,26,07,34,12.40
2008,06,26,07,35,12.40
2008,06,26,07,36,12.40
2008,06,26,07,37,12.40
2008,06,26,07,38,12.40
2008,06,26,07,39,12.40
2008,06,26,07,40,12.40
2008,06,26,07,41,12.50
2008,06,26,07,42,12.50
2008,06,26,07,43,12.60
2008,06,26,07,44,12.60
2008,06,26,07,45,12.70
2008,06,26,07,46,12.70
2008,06,26,07,47,12.70
2008,06,26,07,48,12.70
2008,06,26,07,49,12.70
2008,06,26,07,50,12.70
2008,06,26,07,51,12.80
2008,06,26,07,52,12.80
2008,06,26,07,53,12.80
2008,06,26,07,54,12.90
2008,06,26,07,55,12.90
2008,06,26,07,56,12.90
2008,06,26,07,57,13.00
2008,06,26,07,58,13.00
2008,06,26,07,59,13.00
2008,06,26,08,00,13.10
2008,06,26,08,01,13.10
2008,06,26,08,02,13.10
2008,06,26,08,03,13.10
2008,06,26,08,04,13.10
2008,06,26,08,05,13.10
2008,06,26,08,06,13.20
2008,06,26,08,07,13.20
2008,06,26,08,08,13.20
2008,06,26,08,09,13.20
2008,06,26,08,10,13.20
2008,06,26,08,11,13.30
2008,06,26,08,12,13.30
2008,06,26,08,13,13.30
2008,06,26,08,14,13.30
2008,06,26,08,15,13.30
2008,06,26,08,16,13.30
2008,06,26,08,17,13.30
2008,06,26,08,18,13.30
2008,06,26,08,19,13.30
2008,06,26,08,20,13.30
2008,06,26,08,21,13.30
2008,06,26,08,22,13.30
2008,06,26,08,23,13.30
2008,06,26,08,24,13.40
2008,06,26,08,25,13.40
2008,06,26,08,26,13.50
2008,06,26,08,27,13.60
2008,06,26,08,28,13.60
2008,06,26,08,29,13.70
2008,06,26,08,30,13.70
2008,06,26,08,31,13.70
2008,06,26,08,32,13.80
2008,06,26,08,33,13.90
2008,06,26,08,34,14.00
2008,06,26,08,35,14.10
2008,06,26,08,36,14.20
2008,06,26,08,37,14.40
2008,06,26,08,38,14.50
2008,06,26,08,39,14.60
2008,06,26,08,40,14.80
2008,06,26,08,41,14.90
2008,06,26,08,42,15.00
2008,06,26,08,43,15.00
2008,06,26,08,44,15.00
2008,06,26,08,45,15.00
2008,06,26,08,46,15.00
2008,06,26,08,47,15.00
2008,06,26,08,48,15.00
2008,06,26,08,49,14.90
2008,06,26,08,50,14.80
2008,06,26,08,51,14.70
2008,06,26,08,52,14.70
2008,06,26,08,53,14.80
2008,06,26,08,54,14.80
2008,06,26,08,55,14.90
2008,06,26,08,56,15.00
2008,06,26,08,57,15.00
2008,06,26,08,58,15.00
2008,06,26,08,59,15.00
2008,06,26,09,00,15.00
2008,06,26,09,01,15.00
2008,06,26,09,02,15.00
2008,06,26,09,03,15.00
2008,06,26,09,04,15.00
2008,06,26,09,05,14.90
2008,06,26,09,06,14.80
2008,06,26,09,07,14.60
2008,06,26,09,08,14.60
2008,06,26,09,09,14.60
2008,06,26,09,10,14.60
2008,06,26,09,11,14.70
2008,06,26,09,12,14.80
2008,06,26,09,13,14.80
2008,06,26,09,14,14.80
2008,06,26,09,15,14.90
2008,06,26,09,16,14.90
2008,06,26,09,17,14.90
2008,06,26,09,18,14.80
2008,06,26,09,19,14.80
2008,06,26,09,20,14.80
2008,06,26,09,21,14.80
2008,06,26,09,22,14.80
2008,06,26,09,23,14.80
2008,06,26,09,24,14.80
2008,06,26,09,25,14.80
2008,06,26,09,26,14.80
2008,06,26,09,27,14.90
2008,06,26,09,28,14.90
2008,06,26,09,29,15.00
2008,06,26,09,30,15.00
2008,06,26,09,31,15.00
2008,06,26,09,32,15.00
2008,06,26,09,33,15.10
2008,06,26,09,34,15.20
2008,06,26,09,35,15.30
2008,06,26,09,36,15.40
2008,06,26,09,37,15.40
2008,06,26,09,38,15.50
2008,06,26,09,39,15.50
2008,06,26,09,40,15.60
2008,06,26,09,41,15.60
2008,06,26,09,42,15.60
2008,06,26,09,43,15.50
2008,06,26,09,44,15.30
2008,06,26,09,45,15.20
2008,06,26,09,46,15.10
2008,06,26,09,47,15.10
2008,06,26,09,48,15.00
2008,06,26,09,49,15.00
2008,06,26,09,50,15.00
2008,06,26,09,51,15.00
2008,06,26,09,52,15.00
2008,06,26,09,53,15.00
2008,06,26,09,54,15.00
2008,06,26,09,55,15.00
2008,06,26,09,56,15.00
2008,06,26,09,57,15.00
2008,06,26,09,58,15.00
2008,06,26,09,59,15.00
2008,06,26,10,00,15.00
2008,06,26,10,01,15.00
2008,06,26,10,02,15.10
2008,06,26,10,03,15.20
2008,06,26,10,04,15.30
2008,06,26,10,05,15.40
2008,06,26,10,06,15.50
2008,06,26,10,07,15.60
2008,06,26,10,08,15.60
2008,06,26,10,09,15.60
2008,06,26,10,10,15.60
2008,06,26,10,11,15.60
2008,06,26,10,12,15.70
2008,06,26,10,13,15.80
2008,06,26,10,14,15.80
2008,06,26,10,15,16.00
2008,06,26,10,16,16.10
2008,06,26,10,17,16.20
2008,06,26,10,18,16.30
2008,06,26,10,19,16.40
2008,06,26,10,20,16.50
2008,06,26,10,21,16.60
2008,06,26,10,22,16.60
2008,06,26,10,23,16.60
2008,06,26,10,24,16.60
2008,06,26,10,25,16.60
2008,06,26,10,26,16.60
2008,06,26,10,27,16.50
2008,06,26,10,28,16.40
2008,06,26,10,29,16.30
2008,06,26,10,30,16.30
2008,06,26,10,31,16.20
2008,06,26,10,32,16.30
2008,06,26,10,33,16.30
2008,06,26,10,34,16.30
2008,06,26,10,35,16.30
2008,06,26,10,36,16.20
2008,06,26,10,37,16.30
2008,06,26,10,38,16.30
2008,06,26,10,39,16.20
2008,06,26,10,40,16.20
2008,06,26,10,41,16.20
2008,06,26,10,42,16.20
2008,06,26,10,43,16.20
2008,06,26,10,44,16.20
2008,06,26,10,45,16.10
2008,06,26,10,46,16.10
2008,06,26,10,47,16.10
2008,06,26,10,48,16.10
2008,06,26,10,49,16.10
2008,06,26,10,50,16.10
2008,06,26,10,51,16.10
2008,06,26,10,52,16.10
2008,06,26,10,53,16.10
2008,06,26,10,54,16.10
2008,06,26,10,55,16.20
2008,06,26,10,56,16.20
2008,06,26,10,57,16.30
2008,06,26,10,58,16.30
2008,06,26,10,59,16.40
2008,06,26,11,00,16.40
2008,06,26,11,01,16.30
2008,06,26,11,02,16.20
2008,06,26,11,03,16.20
2008,06,26,11,04,16.10
2008,06,26,11,05,16.00
2008,06,26,11,06,15.90
2008,06,26,11,07,15.90
2008,06,26,11,08,15.90
2008,06,26,11,09,15.90
2008,06,26,11,10,15.90
2008,06,26,11,11,16.00
2008,06,26,11,12,16.00
2008,06,26,11,13,16.00
2008,06,26,11,14,15.90
2008,06,26,11,15,15.90
2008,06,26,11,16,16.00
2008,06,26,11,17,16.10
2008,06,26,11,18,16.10
2008,06,26,11,19,16.20
2008,06,26,11,20,16.30
2008,06,26,11,21,16.30
2008,06,26,11,22,16.40
2008,06,26,11,23,16.40
2008,06,26,11,24,16.40
2008,06,26,11,25,16.40
2008,06,26,11,26,16.40
2008,06,26,11,27,16.40
2008,06,26,11,28,16.40
2008,06,26,11,29,16.40
2008,06,26,11,30,16.40
2008,06,26,11,31,16.40
2008,06,26,11,32,16.50
2008,06,26,11,33,16.50
2008,06,26,11,34,16.50
2008,06,26,11,35,16.50
2008,06,26,11,36,16.40
2008,06,26,11,37,16.50
2008,06,26,11,38,16.40
2008,06,26,11,39,16.40
2008,06,26,11,40,16.30
2008,06,26,11,41,16.30
2008,06,26,11,42,16.20
2008,06,26,11,43,16.30
2008,06,26,11,44,16.30
2008,06,26,11,45,16.30
2008,06,26,11,46,16.30
2008,06,26,11,47,16.40
2008,06,26,11,48,16.40
2008,06,26,11,49,16.40
2008,06,26,11,50,16.40
2008,06,26,11,51,16.40
2008,06,26,11,52,16.40
2008,06,26,11,53,16.40
2008,06,26,11,54,16.40
2008,06,26,11,55,16.30
2008,06,26,11,56,16.30
2008,06,26,11,57,16.20
2008,06,26,11,58,16.20
2008,06,26,11,59,16.20
2008,06,26,12,00,16.20
2008,06,26,12,01,16.30
2008,06,26,12,02,16.30
2008,06,26,12,03,16.40
2008,06,26,12,04,16.40
2008,06,26,12,05,16.40
2008,06,26,12,06,16.40
2008,06,26,12,07,16.30
2008,06,26,12,08,16.30
2008,06,26,12,09,16.20
2008,06,26,12,10,16.20
2008,06,26,12,11,16.20
2008,06,26,12,12,16.20
2008,06,26,12,13,16.20
2008,06,26,12,14,16.20
2008,06,26,12,15,16.20
2008,06,26,12,16,16.20
2008,06,26,12,17,16.20
2008,06,26,12,18,16.20
2008,06,26,12,19,16.20
2008,06,26,12,20,16.10
2008,06,26,12,21,16.20
2008,06,26,12,22,16.20
2008,06,26,12,23,16.20
2008,06,26,12,24,16.20
2008,06,26,12,25,16.20
2008,06,26,12,26,16.10
2008,06,26,12,27,16.00
2008,06,26,12,28,16.00
2008,06,26,12,29,15.90
2008,06,26,12,30,15.90
2008,06,26,12,31,16.00
2008,06,26,12,32,16.00
2008,06,26,12,33,16.10
2008,06,26,12,34,16.10
2008,06,26,12,35,16.20
2008,06,26,12,36,16.30
2008,06,26,12,37,16.30
2008,06,26,12,38,16.20
2008,06,26,12,39,16.20
2008,06,26,12,40,16.10
2008,06,26,12,41,16.20
2008,06,26,12,42,16.20
2008,06,26,12,43,16.30
2008,06,26,12,44,16.30
2008,06,26,12,45,16.30
2008,06,26,12,46,16.30
2008,06,26,12,47,16.30
2008,06,26,12,48,16.30
2008,06,26,12,49,16.30
2008,06,26,12,50,16.30
2008,06,26,12,51,16.30
2008,06,26,12,52,16.40
2008,06,26,12,53,16.40
2008,06,26,12,54,16.40
2008,06,26,12,55,16.40
2008,06,26,12,56,16.40
2008,06,26,12,57,16.40
2008,06,26,12,58,16.30
2008,06,26,12,59,16.20
2008,06,26,13,00,16.10
2008,06,26,13,01,16.00
2008,06,26,13,02,15.90
2008,06,26,13,03,15.90
2008,06,26,13,04,15.90
2008,06,26,13,05,15.90
2008,06,26,13,06,16.00
2008,06,26,13,07,16.10
2008,06,26,13,08,16.10
2008,06,26,13,09,16.20
2008,06,26,13,10,16.30
2008,06,26,13,11,16.40
2008,06,26,13,12,16.40
2008,06,26,13,13,16.50
2008,06,26,13,14,16.50
2008,06,26,13,15,16.50
2008,06,26,13,16,16.50
2008,06,26,13,17,16.50
2008,06,26,13,18,16.50
2008,06,26,13,19,16.60
2008,06,26,13,20,16.60
2008,06,26,13,21,16.50
2008,06,26,13,22,16.40
2008,06,26,13,23,16.40
2008,06,26,13,24,16.30
2008,06,26,13,25,16.20
2008,06,26,13,26,16.10
2008,06,26,13,27,16.00
2008,06,26,13,28,15.80
2008,06,26,13,29,15.80
2008,06,26,13,30,15.70
2008,06,26,13,31,15.60
2008,06,26,13,32,15.60
2008,06,26,13,33,15.50
2008,06,26,13,34,15.40
2008,06,26,13,35,15.40
2008,06,26,13,36,15.40
2008,06,26,13,37,15.50
2008,06,26,13,38,15.50
2008,06,26,13,39,15.60
2008,06,26,13,40,15.70
2008,06,26,13,41,15.70
2008,06,26,13,42,15.80
2008,06,26,13,43,15.80
2008,06,26,13,44,15.90
2008,06,26,13,45,16.00
2008,06,26,13,46,16.00
2008,06,26,13,47,16.10
2008,06,26,13,48,16.00
2008,06,26,13,49,16.00
2008,06,26,13,50,15.90
2008,06,26,13,51,16.00
2008,06,26,13,52,16.00
2008,06,26,13,53,16.00
2008,06,26,13,54,16.00
2008,06,26,13,55,15.90
2008,06,26,13,56,15.90
2008,06,26,13,57,15.90
2008,06,26,13,58,15.90
2008,06,26,13,59,15.90
2008,06,26,14,00,15.90
2008,06,26,14,01,15.90
2008,06,26,14,02,15.90
2008,06,26,14,03,16.00
2008,06,26,14,04,16.00
2008,06,26,14,05,16.10
2008,06,26,14,06,16.10
2008,06,26,14,07,16.20
2008,06,26,14,08,16.10
2008,06,26,14,09,16.10
2008,06,26,14,10,16.10
2008,06,26,14,11,16.10
2008,06,26,14,12,16.10
2008,06,26,14,13,16.10
2008,06,26,14,14,16.10
2008,06,26,14,15,16.00
2008,06,26,14,16,16.00
2008,06,26,14,17,16.00
2008,06,26,14,18,16.00
2008,06,26,14,19,16.10
2008,06,26,14,20,16.10
2008,06,26,14,21,16.10
2008,06,26,14,22,16.10
2008,06,26,14,23,16.10
2008,06,26,14,24,16.00
2008,06,26,14,25,15.90
2008,06,26,14,26,15.90
2008,06,26,14,27,15.90
2008,06,26,14,28,15.90
2008,06,26,14,29,16.00
2008,06,26,14,30,16.00
2008,06,26,14,31,15.90
2008,06,26,14,32,15.90
2008,06,26,14,33,15.80
2008,06,26,14,34,15.80
2008,06,26,14,35,15.80
2008,06,26,14,36,15.80
2008,06,26,14,37,15.90
2008,06,26,14,38,15.90
2008,06,26,14,39,15.90
2008,06,26,14,40,15.80
2008,06,26,14,41,15.80
2008,06,26,14,42,15.80
2008,06,26,14,43,15.80
2008,06,26,14,44,15.90
2008,06,26,14,45,15.90
2008,06,26,14,46,16.00
2008,06,26,14,47,16.10
2008,06,26,14,48,16.20
2008,06,26,14,49,16.20
2008,06,26,14,50,16.30
2008,06,26,14,51,16.30
2008,06,26,14,52,16.30
2008,06,26,14,53,16.30
2008,06,26,14,54,16.30
2008,06,26,14,55,16.30
2008,06,26,14,56,16.20
2008,06,26,14,57,16.10
2008,06,26,14,58,16.00
2008,06,26,14,59,16.00
2008,06,26,15,00,15.90
2008,06,26,15,01,15.90
2008,06,26,15,02,15.90
2008,06,26,15,03,15.90
2008,06,26,15,04,16.00
2008,06,26,15,05,16.00
2008,06,26,15,06,15.90
2008,06,26,15,07,15.90
2008,06,26,15,08,15.80
2008,06,26,15,09,15.80
2008,06,26,15,10,15.80
2008,06,26,15,11,15.80
2008,06,26,15,12,15.80
2008,06,26,15,13,15.80
2008,06,26,15,14,15.70
2008,06,26,15,15,15.80
2008,06,26,15,16,15.80
2008,06,26,15,17,15.80
2008,06,26,15,18,15.80
2008,06,26,15,19,15.90
2008,06,26,15,20,16.00
2008,06,26,15,21,16.00
2008,06,26,15,22,16.10
2008,06,26,15,23,16.00
2008,06,26,15,24,16.00
2008,06,26,15,25,15.90
2008,06,26,15,26,15.90
2008,06,26,15,27,15.90
2008,06,26,15,28,15.90
2008,06,26,15,29,15.90
2008,06,26,15,30,15.80
2008,06,26,15,31,15.80
2008,06,26,15,32,15.80
2008,06,26,15,33,15.80
2008,06,26,15,34,15.80
2008,06,26,15,35,15.80
2008,06,26,15,36,15.80
2008,06,26,15,37,15.70
2008,06,26,15,38,15.70
2008,06,26,15,39,15.70
2008,06,26,15,40,15.70
2008,06,26,15,41,15.60
2008,06,26,15,42,15.60
2008,06,26,15,43,15.70
2008,06,26,15,44,15.60
2008,06,26,15,45,15.70
2008,06,26,15,46,15.70
2008,06,26,15,47,15.70
2008,06,26,15,48,15.70
2008,06,26,15,49,15.80
2008,06,26,15,50,15.80
2008,06,26,15,51,15.80
2008,06,26,15,52,15.80
2008,06,26,15,53,15.80
2008,06,26,15,54,15.80
2008,06,26,15,55,15.80
2008,06,26,15,56,15.90
2008,06,26,15,57,15.90
2008,06,26,15,58,15.90
2008,06,26,15,59,15.90
2008,06,26,16,00,15.90
2008,06,26,16,01,15.90
2008,06,26,16,02,15.90
2008,06,26,16,03,15.90
2008,06,26,16,04,15.90
2008,06,26,16,05,15.90
2008,06,26,16,06,15.90
2008,06,26,16,07,15.90
2008,06,26,16,08,15.80
2008,06,26,16,09,15.80
2008,06,26,16,10,15.80
2008,06,26,16,11,15.80
2008,06,26,16,12,15.80
2008,06,26,16,13,15.80
2008,06,26,16,14,15.90
2008,06,26,16,15,15.90
2008,06,26,16,16,15.90
2008,06,26,16,17,15.90
2008,06,26,16,18,15.90
2008,06,26,16,19,15.80
2008,06,26,16,20,15.80
2008,06,26,16,21,15.70
2008,06,26,16,22,15.70
2008,06,26,16,23,15.70
2008,06,26,16,24,15.60
2008,06,26,16,25,15.60
2008,06,26,16,26,15.60
2008,06,26,16,27,15.70
2008,06,26,16,28,15.70
2008,06,26,16,29,15.70
2008,06,26,16,30,15.70
2008,06,26,16,31,15.70
2008,06,26,16,32,15.70
2008,06,26,16,33,15.70
2008,06,26,16,34,15.80
2008,06,26,16,35,15.80
2008,06,26,16,36,15.80
2008,06,26,16,37,15.80
2008,06,26,16,38,15.90
2008,06,26,16,39,15.90
2008,06,26,16,40,16.00
2008,06,26,16,41,16.10
2008,06,26,16,42,16.10
2008,06,26,16,43,16.10
2008,06,26,16,44,16.10
2008,06,26,16,45,16.10
2008,06,26,16,46,16.00
2008,06,26,16,47,16.00
2008,06,26,16,48,16.00
2008,06,26,16,49,16.00
2008,06,26,16,50,16.00
2008,06,26,16,51,15.90
2008,06,26,16,52,15.90
2008,06,26,16,53,15.90
2008,06,26,16,54,16.00
2008,06,26,16,55,16.00
2008,06,26,16,56,16.00
2008,06,26,16,57,16.00
2008,06,26,16,58,16.00
2008,06,26,16,59,16.10
2008,06,26,17,00,16.10
2008,06,26,17,01,16.10
2008,06,26,17,02,16.10
2008,06,26,17,03,16.10
2008,06,26,17,04,16.10
2008,06,26,17,05,16.10
2008,06,26,17,06,16.10
2008,06,26,17,07,16.10
2008,06,26,17,08,16.10
2008,06,26,17,09,16.10
2008,06,26,17,10,16.20
2008,06,26,17,11,16.20
2008,06,26,17,12,16.20
2008,06,26,17,13,16.10
2008,06,26,17,14,16.20
2008,06,26,17,15,16.20
2008,06,26,17,16,16.20
2008,06,26,17,17,16.20
2008,06,26,17,18,16.20
2008,06,26,17,19,16.20